Location: Saint Louis
(38.6272°N, 90.1978°W)
Time: 10:18:24
(UTC-05:00)

ISS - Pass Details

Date: 14 February 2013
Orbit: 401 x 404 km, 51.6° (Epoch: 27 July)

Event Time Altitude Azimuth Distance (km) Brightness Sun altitude
Rises 18:16:32 0° 272° (W) 2,326 2.5 -8.2°
Reaches altitude 10° 18:19:09 10° 294° (WNW) 1,462 0.5 -8.7°
Maximum altitude 18:21:22 17° 337° (NNW) 1,119 -0.9 -9.1°
Drops below altitude 10° 18:23:35 10° 20° (NNE) 1,458 -0.8 -9.5°
Enters shadow 18:24:46 - 33° (NNE) 1,818 -0.4 -9.8°
